Location: Fours
(44.3167°N, 6.7000°E)
Time: 10:52:55
(UTC+00:00)

Cosmos 1174 - Pass Details

Date: 16 October 2021
Orbit: 373 x 1139 km, 66.1° (Epoch: 08 December)

Event Time Altitude Azimuth Distance (km) Brightness Sun altitude
Rises 17:16:05 0° 188° (S) 2,538 7.4 -5.9°
Reaches altitude 10° 17:18:33 10° 175° (S) 1,563 6.2 -6.4°
Maximum altitude 17:21:25 26° 117° (ESE) 847 4.3 -6.9°
Drops below altitude 10° 17:24:03 10° 58° (ENE) 1,419 5.4 -7.3°
Enters shadow 17:24:40 - 52° (NE) 1,649 5.7 -7.4°
